GORIZONT 19 [-]

Last updated on Jan. 25, 2020, 4:43 a.m. UTC

1 20263U 89081A   20024.05656163  .00000114  00000-0  00000-0 0  9995
2 20263  14.4568 351.9638 0005877 301.3085 249.4610  1.00308358 23914
UTC
Height (km)
Latitude
Longitude
Inclination
Orbital Period
UTC large
Height (km)
Speed (km/s)
/
Latitude / Longitude
Inclination (degrees)
Orbital Period (minutes)
Azimuth
Elevation
Range (km)
Doppler Factor
iOS Compass Heading
iOS Angle

Next 30 passes for location: Hong Kong

Rise time Rise Azimuth (degrees) Set time Set Azimuth (degrees) Duration Max altitude (degrees)

No matching passes for this satellites